Flag for Germany Weather past 2 weeks in Lampertheim, Hesse, Germany

Now
46 °F

Overcast.


Feels Like: 41 °F
Forecast: 40 / 49 °F
Wind: 10 mph from Southwest

Location: Baden Wurttemberg - Neuostheim

Current Time: Dec 22, 2014 at 9:06:53 AM

Latest Report: Dec 22, 2014 at 8:20 AM


Visibility: N/A

Pressure: 30.33 "Hg

Humidity: 71%

Dew point: 37 °F

Location of LampertheimLocation

Historic Weather in Lampertheim — Graph

°F

Lampertheim temperature yesterday

Maximum temperature yesterday: 46 °F (at 6:20 PM)
Minimum temperature yesterday: 41 °F (at 7:50 AM)
Average temperature yesterday: 44 °F

Past Weeks' High & Low Weather Summary

 TemperatureHumidityPressure
High55 °F (Dec 18, 6:20 PM)100% (Dec 7, 7:50 AM)30.51 "Hg (Dec 7, 7:50 AM)
Low34 °F (Dec 8, 8:50 PM)57% (Dec 8, 1:50 PM)29.68 "Hg (Dec 12, 4:20 PM)
Average44 °F84%30.06 "Hg
* Reported Dec 7 7:50 AM — Dec 22 7:20 AM, Lampertheim, Weather by CustomWeather, © 2014

Note: Actual official high and low records may vary slightly from our data, if they occured in-between our weather recording intervals... More about our weather records

Advertising

Lampertheim weather history for previous 24 hours

 ConditionsComfort  
Time TempWeatherWind HumidityBarometerVisibility
7:20 AM
Dec 22
46 °FOvercast.12 mph71%30.33 "HgN/A
6:50 AM46 °FOvercast.9 mph71%30.30 "HgN/A
6:20 AM46 °FOvercast.12 mph71%30.30 "HgN/A
5:50 AM46 °FOvercast.10 mph71%30.33 "HgN/A
8:20 PM
Dec 21
46 °FPassing clouds.7 mph66%30.42 "HgN/A
7:50 PM46 °FPassing clouds.9 mph66%30.42 "HgN/A
7:20 PM46 °FPassing clouds.8 mph66%30.42 "HgN/A
6:50 PM46 °FPassing clouds.6 mph71%30.42 "HgN/A
6:20 PM46 °FPassing clouds.7 mph71%30.42 "HgN/A
5:50 PM45 °FPassing clouds.8 mph76%30.45 "HgN/A
5:20 PM45 °FPassing clouds.6 mph76%30.45 "HgN/A
4:50 PM45 °FPassing clouds.6 mph76%30.45 "HgN/A
4:20 PM45 °FPartly sunny.6 mph76%30.45 "HgN/A
3:50 PM45 °FPartly sunny.7 mph76%30.45 "HgN/A
3:20 PM45 °FPartly sunny.7 mph81%30.45 "HgN/A
2:50 PM45 °FOvercast.8 mph76%30.45 "HgN/A
2:20 PM45 °FMostly cloudy.7 mph76%30.45 "HgN/A
1:50 PM45 °FOvercast.7 mph81%30.48 "HgN/A
1:20 PM45 °FOvercast.7 mph81%30.48 "HgN/A
12:50 PM45 °FOvercast.8 mph81%30.48 "HgN/A
12:20 PM45 °FMore clouds than sun.7 mph76%30.51 "HgN/A
11:50 AM45 °FMostly cloudy.7 mph76%30.51 "HgN/A
11:20 AM45 °FPartly sunny.8 mph76%30.51 "HgN/A
10:50 AM45 °FPartly sunny.5 mph76%30.51 "HgN/A
10:20 AM43 °FPartly sunny.6 mph81%30.51 "HgN/A
9:50 AM43 °FPartly sunny.7 mph81%30.51 "HgN/A
9:20 AM41 °FScattered clouds.8 mph87%30.51 "HgN/A
Weather by CustomWeather, © 2014

See weather overviewHow to use our weather pages